• Processing (Info)

  • MPEC 2016-R76 : 2016 RG17

    The following Minor Planet Electronic Circular may be linked-to from your own Web pages, but must not otherwise be redistributed electronically.

    A form allowing access to any MPEC is at the bottom of this page.


    Read MPEC 2016-R75 Read MPEC 2016-R77


    M.P.E.C. 2016-R76                                Issued 2016 Sept. 7, 22:18 UT
    
         The Minor Planet Electronic Circulars contain information on unusual
             minor planets and routine data on comets.  They are published
        on behalf of Division F of the International Astronomical Union by the
              Minor Planet Center, Smithsonian Astrophysical Observatory,
                              Cambridge, MA 02138, U.S.A.
    
                 Prepared using the Tamkin Foundation Computer Network
    
                                  MPC@CFA.HARVARD.EDU
                URL https://www.minorplanetcenter.net/    ISSN 1523-6714
    
                                       2016 RG17
    
    Observations:
         K16R17G* C2016 09 04.38571 02 37 45.84 +32 44 50.4          20.2 VqER076G96
         K16R17G  C2016 09 04.39073 02 37 39.83 +32 43 44.8          20.1 VqER076G96
         K16R17G  C2016 09 04.39575 02 37 33.92 +32 42 39.0          19.9 VqER076G96
         K16R17G  C2016 09 04.43752 02 36 43.85 +32 33 24.4          20.1 VqER076G96
         K16R17G  C2016 09 04.43788 02 36 43.39 +32 33 19.2          20.1 VqER076G96
         K16R17G  C2016 09 04.43982 02 36 41.01 +32 32 53.4          20.0 VqER076G96
         K16R17G  C2016 09 04.44019 02 36 40.63 +32 32 48.8          20.1 VqER076G96
         K16R17G  C2016 09 04.44215 02 36 38.25 +32 32 22.2          19.9 VqER076G96
         K16R17G  C2016 09 04.44250 02 36 37.84 +32 32 17.9          20.1 VqER076G96
         K16R17G  C2016 09 04.44447 02 36 35.50 +32 31 51.6          20.1 VqER076G96
         K16R17G  C2016 09 04.44483 02 36 35.09 +32 31 47.0          20.3 VqER076G96
         K16R17G  C2016 09 06.32351 02 01 03.36 +24 50 04.2          19.6 VqER076G96
         K16R17G  C2016 09 06.33783 02 00 47.11 +24 46 18.3          19.8 VqER076G96
         K16R17G  C2016 09 06.34501 02 00 38.92 +24 44 24.1          19.2 VqER076G96
         K16R17G KC2016 09 07.00485 01 48 37.92 +21 45 28.1          19.0 RoER076461
         K16R17G KC2016 09 07.00854 01 48 33.84 +21 44 27.3          18.9 RoER076461
         K16R17G KC2016 09 07.01223 01 48 29.85 +21 43 26.6          19.5 RoER076461
         K16R17G KC2016 09 07.11905 01 46 32.95 +21 14 02.6          19.7 RqER076204
         K16R17G KC2016 09 07.12674 01 46 24.48 +21 11 54.8                qER076204
         K16R17G KC2016 09 07.13442 01 46 16.05 +21 09 46.8                qER076204
         K16R17G KC2016 09 07.31240801 43 09.45 +20 20 34.1          19.7 VuER076H21
         K16R17G KC2016 09 07.32107201 42 59.99 +20 18 09.5          19.4 VuER076H21
         K16R17G KC2016 09 07.32488801 42 55.81 +20 17 05.9          19.8 VuER076H21
    
    Observer details:
    204 Schiaparelli Observatory.  Observer L. Buzzi.  0.60-m f/4.64 reflector
        + CCD.
    461 University of Szeged, Piszkesteto Stn. (Konkoly).  Observer K. Sarneczky.
        0.60-m Schmidt + CCD.
    G96 Mt. Lemmon Survey.  Observers R. G. Matheny, D. C. Fuls.  Measurers
        E. J. Christensen, D. C. Fuls, A. R. Gibbs, A. D. Grauer, J. A. Johnson,
        R. A. Kowalski, S. M. Larson, G. J. Leonard, R. G. Matheny, R. L. Seaman,
        F. C. Shelly.  1.5-m reflector + 10K CCD.
    H21 Astronomical Research Observatory, Westfield.  Observer R. Holmes.
        Measurers S. Foglia, L. Buzzi, T. Linder, R. Holmes.  0.61-m f/4.5
        astrograph + CCD.
    
    Orbital elements:
    2016 RG17                                                Earth MOID = 0.0436 AU
    Epoch 2016 July 31.0 TT = JDT 2457600.5                 MPC
    M  45.48587              (2000.0)            P               Q
    n   1.34850092     Peri.   29.11383     -0.93812489     +0.34034419
    a   0.8114004      Node   170.12709     -0.34279637     -0.93886271
    e   0.5682307      Incl.   21.89283     +0.04911567     -0.05198689
    P   0.73           H   23.0           G   0.15           U   8
    Residuals in seconds of arc
    160904 G96  0.2-  0.6-    160904 G96  0.2-  0.1+    160907 461  0.7+  0.2+
    160904 G96  0.3-  0.0     160904 G96  0.1+  0.1+    160907 204  0.1+  0.2+
    160904 G96  0.9+  0.4+    160904 G96  0.3+  0.4+    160907 204  0.1-  0.2+
    160904 G96  0.3+  0.2+    160906 G96  0.2-  0.0     160907 204  0.1+  0.1-
    160904 G96  0.1-  0.2-    160906 G96  0.2+  0.2+    160907 H21  0.2-  0.0
    160904 G96  0.8-  0.2-    160906 G96  0.1-  0.5-    160907 H21  0.0   0.2-
    160904 G96  0.1+  0.2+    160907 461  0.3-  0.2+    160907 H21  0.1-  0.2-
    160904 G96  0.3-  0.2-    160907 461  0.4-  0.1+
    
    Ephemeris:
    2016 RG17                a,e,i = 0.81, 0.57, 22                  q = 0.3503
    Date    TT    R. A. (2000) Decl.     Delta      r     Elong.  Phase     V
    2016 08 08    07 39 01.9 +49 19 37   0.2971  0.8019    38.2   128.5    25.5
    ...
    2016 08 23    05 55 02.3 +51 08 01   0.1707  0.9504    64.5   106.1    23.0
    ...
    2016 08 31    04 01 02.6 +44 36 46   0.1143  1.0167    90.4    83.1    21.2
    ...
    2016 09 06    02 07 00.2 +26 15 27   0.08985 1.0609   124.0    51.9    19.8
    2016 09 07    01 48 42.4 +21 47 46   0.08870 1.0678   130.8    45.6    19.6
    2016 09 08    01 31 12.9 +17 08 19   0.08860 1.0746   137.6    39.2    19.5
    ...
    2016 09 14    00 07 46.7 -07 57 02   0.1086  1.1127   169.2     9.8    19.0
    ...
    2016 09 22    23 06 17.9 -24 24 30   0.1690  1.1568   153.0    23.2    20.6
    ...
    2016 10 07    22 24 04.1 -32 39 03   0.3147  1.2196   128.3    40.0    22.5
    
    A. U. Tomatic                (C) Copyright 2016 MPC           M.P.E.C. 2016-R76
    

    Read MPEC 2016-R75 Read MPEC 2016-R77


    MPEC number:

    Enter an MPEC number in one of the following forms:

    • 1997-B01 (the full form)
    • J97B01 (the packed version of the full form)
    • B01 (the abbreviated form)